{"data":{"norad_id":59765,"intl_designator":"2024-091N","name":"STARLINK-11106 [DTC]","alt_names":[],"object_type":"PAYLOAD","status":"ACTIVE","operator":null,"country":"US","launch_date":"2024-05-14","launch_site_code":"AFWTR","launch_vehicle":null,"mission":null,"orbit_class":"UNKNOWN","rcs_meters":null,"size_class":null,"mass_kg":null,"dimensions":null,"purposes":["comms"],"wikipedia_slug":null,"has_3d_model":false,"image_url":null,"decayed_at":null,"tle_current":{"epoch":"2026-09-21T10:47:19.920768Z","epoch_age_seconds":89208,"freshness":"FRESH","line1":"1 59765U 24091N   26264.44953612 -.00001383  00000+0 -65613-5 0  9994","line2":"2 59765  53.1594 320.9422 0000899  54.7924 305.3179 15.69698688136262","mean_motion":15.69698688,"eccentricity":8.99e-5,"inclination_deg":53.1594,"raan_deg":320.9422,"arg_perigee_deg":54.7924,"mean_anomaly_deg":305.3179,"bstar":-6.5613e-6,"rev_number":13626,"period_min":91.737351315159,"perigee_km":359.15338436688,"apogee_km":360.36485808947,"semimajor_km":6737.8961212282,"source":"CELESTRAK","updated_at":"2026-09-22T09:00:49.069317Z"}}}